Wind_Speed
3 3 3 3 2 2 2 2 4 3 3 3 2 2 2 2 2 1 1 0 2 4 4 5 6 7 8 8 8 8 9 10 10 11 11 11 10 9 9 10 12 13 13
4 4 3 3 3 2 2 2 3 3 3 3 3 3 3 3 3 2 2 2 3 4 5 6 7 7 7 8 7 7 8 9 9 9 10 11 11 10 10 10 11 12 13
4 5 4 4 4 4 4 3 4 4 3 3 3 3 3 3 3 3 3 3 3 4 5 6 7 7 6 6 6 7 8 9 9 9 10 10 10 11 11 10 10 11 12
5 6 6 6 5 5 5 5 5 5 4 4 4 3 2 3 3 3 3 4 4 5 6 6 7 7 6 6 7 8 8 9 9 9 9 10 10 11 11 11 11 11 12
6 6 7 7 6 6 6 5 5 5 5 4 4 3 2 2 3 3 4 5 5 6 6 7 6 7 7 7 8 8 8 9 9 8 8 9 10 11 11 11 12 12 12
6 6 6 6 6 5 5 5 5 5 5 4 4 4 4 4 4 5 4 5 6 6 7 7 7 7 8 8 8 8 9 8 8 8 8 9 10 11 11 11 12 12 13
6 6 5 6 6 5 5 5 5 5 5 4 3 3 4 4 4 5 5 6 7 7 7 7 8 8 8 8 9 9 9 8 8 8 8 8 8 10 11 12 12 12 12
7 6 6 6 6 5 5 5 5 5 5 5 4 4 4 4 4 5 6 6 7 8 8 8 9 9 9 9 9 8 9 9 8 8 8 9 9 9 11 11 11 11 11
6 6 6 6 6 6 5 5 5 5 5 5 4 4 5 5 5 6 7 7 8 8 9 9 9 9 9 10 10 9 9 9 9 9 9 9 10 10 10 11 11 12 12
5 5 5 5 5 5 4 4 4 5 5 5 4 4 5 6 6 6 7 7 8 8 9 9 9 9 9 10 10 10 10 10 9 9 9 10 10 10 11 12 12 11 12
5 4 4 4 4 4 4 4 5 5 5 5 5 5 5 6 7 7 8 8 8 9 9 9 10 10 10 10 10 10 10 10 10 10 11 11 11 11 11 11 11 12 12
4 3 3 3 3 4 4 4 5 5 5 6 6 6 7 7 8 8 9 10 10 11 10 11 11 11 11 11 11 11 11 11 10 11 11 11 11 11 11 11 11 13 13
4 3 3 3 3 4 5 5 6 6 6 6 6 7 8 8 8 9 9 10 11 12 12 12 12 12 12 12 13 13 13 12 12 11 11 12 11 11 12 12 12 13 14
4 4 4 4 4 5 5 6 6 7 6 6 7 8 9 9 9 10 10 11 11 12 12 13 12 12 12 13 13 13 14 13 13 13 12 12 13 13 13 13 13 14 14
4 5 5 5 5 5 6 6 7 7 7 7 8 9 9 10 11 11 11 11 11 11 12 13 13 13 14 14 14 14 14 14 14 14 14 13 13 14 14 14 14 15 15
5 5 6 7 6 6 7 7 7 8 8 8 9 9 10 11 11 12 12 12 12 12 13 14 14 14 14 14 15 15 16 16 16 16 15 15 15 15 15 16 16 17 17
6 6 7 7 7 7 8 8 8 9 9 9 10 11 11 12 13 12 13 14 14 14 15 16 16 17 17 17 17 16 17 17 17 17 17 16 16 17 17 17 18 19 19
7 7 7 8 8 9 9 9 10 10 11 12 12 13 13 13 13 14 14 15 16 16 17 18 18 19 19 19 19 19 18 18 18 18 18 18 18 18 19 19 19 20 20
9 9 9 9 10 10 10 10 11 12 13 13 14 15 14 15 15 15 16 17 17 18 19 19 20 21 21 22 22 21 20 19 19 19 19 20 20 21 21 21 21 21 21
10 10 10 10 11 11 11 12 13 14 14 15 15 16 16 16 16 17 18 19 19 20 21 22 22 22 23 23 23 23 23 22 21 21 21 21 21 22 22 22 22 23 23
12 12 12 12 12 13 13 14 15 15 15 16 16 17 18 18 19 19 19 20 21 22 23 24 24 24 25 25 25 25 24 24 24 23 23 23 23 23 23 24 24 24 24
14 14 14 14 14 14 15 16 17 17 17 18 18 19 19 20 21 21 22 22 23 24 25 26 26 26 26 26 26 26 26 26 25 25 25 25 24 24 24 24 25 25 24
16 16 15 15 16 16 17 18 19 19 19 20 20 21 21 22 23 23 24 24 25 26 27 28 27 27 27 27 27 27 27 27 26 26 26 25 25 25 25 25 25 25 25
18 18 18 18 18 19 19 20 21 21 21 21 22 23 23 24 25 25 26 27 28 28 29 29 29 29 29 29 28 28 28 28 27 27 27 26 26 26 26 26 26 26 26
20 20 20 21 21 21 21 22 22 23 23 23 24 25 25 25 26 27 28 28 29 29 29 29 30 30 30 30 30 30 29 29 28 28 28 27 27 28 27 27 26 26 26
22 23 23 23 23 23 24 25 25 25 25 26 26 27 28 27 28 28 29 30 30 30 30 30 30 30 30 31 31 31 31 30 29 29 30 29 29 29 28 27 27 27 27
Wind_Direction
101 100 118 116 104 75 53 41 32 38 39 50 47 46 51 60 56 66 48 16 329 331 325 316 307 301 293 292 295 298 296 293 287 282 280 276 276 276 271 262 256 255 256
92 92 96 89 89 72 60 59 46 41 42 52 52 61 73 68 60 55 40 10 339 332 328 324 320 314 297 294 297 303 307 308 301 290 280 276 274 272 270 264 259 257 256
91 95 87 83 83 84 80 74 66 67 69 63 61 70 75 80 62 48 36 13 348 337 333 332 332 326 312 302 309 308 309 307 302 294 285 278 276 272 267 263 265 261 257
79 85 89 84 78 80 83 80 72 73 69 65 62 63 67 68 51 37 17 3 346 339 339 338 339 338 330 316 316 310 309 306 304 298 286 279 279 276 268 263 264 260 262
77 81 90 85 78 75 78 77 74 67 61 62 64 60 51 41 24 18 10 360 349 345 346 341 341 344 345 337 331 324 314 308 303 296 286 282 280 276 272 269 268 263 262
77 79 83 82 73 69 68 67 64 61 56 58 65 56 45 28 19 11 359 351 347 344 346 344 342 343 343 341 338 335 331 327 316 304 292 284 278 274 273 274 271 265 262
70 68 67 69 68 67 63 58 56 51 49 44 44 38 33 23 14 8 0 354 352 345 340 339 340 340 339 337 335 331 327 326 322 311 304 298 292 281 276 275 274 271 267
65 66 63 66 68 67 62 58 55 47 41 37 33 31 25 18 7 1 360 357 351 348 349 345 341 339 336 334 333 331 328 321 315 309 303 296 297 292 283 278 281 276 274
65 68 63 64 68 63 59 57 49 38 32 26 21 14 11 8 3 358 357 353 349 347 345 343 341 337 335 335 332 329 326 322 316 312 308 303 295 289 284 279 278 275 275
58 60 58 64 61 55 51 45 35 26 21 16 12 5 2 359 357 360 358 354 350 346 343 342 341 340 339 334 332 330 325 318 315 312 308 304 298 291 287 282 277 275 277
48 53 50 61 56 40 31 25 18 17 14 10 6 1 353 349 348 351 352 348 348 345 343 340 338 336 337 336 334 333 329 323 316 311 307 304 301 296 291 283 281 281 280
32 42 48 47 33 19 13 7 3 2 3 2 357 353 351 348 346 342 343 344 343 342 339 338 336 335 332 332 331 330 329 325 319 314 309 304 299 295 291 286 286 284 283
20 20 22 15 3 358 358 357 355 352 351 352 351 347 344 342 341 338 335 336 337 337 336 333 333 330 328 327 328 328 326 323 319 314 308 305 301 297 292 290 288 285 283
1 355 348 345 346 343 343 344 345 341 336 337 340 341 340 339 337 336 335 336 335 333 331 332 332 328 325 324 325 325 322 320 318 315 310 305 300 297 295 292 289 284 282
341 336 329 324 324 327 329 334 338 338 332 325 327 329 330 330 331 329 331 334 335 335 331 330 331 330 327 325 323 322 319 316 313 311 308 304 300 297 293 290 288 283 281
333 325 321 323 319 319 320 322 327 331 332 327 324 324 324 325 327 327 328 329 331 332 331 330 328 328 326 323 319 317 317 314 312 309 306 303 299 297 293 291 286 282 281
326 319 315 315 312 315 314 314 316 319 321 321 320 318 319 320 322 320 320 322 324 325 324 325 324 324 321 321 317 313 314 314 311 307 304 302 299 295 292 291 288 284 281
318 318 311 309 310 310 310 310 312 312 311 310 311 311 311 313 313 314 315 316 318 318 318 319 320 321 320 318 317 314 312 311 310 307 304 300 297 295 292 290 290 288 283
304 308 307 304 304 306 307 307 307 309 308 308 308 309 307 308 309 310 311 311 313 314 314 314 314 315 315 314 314 312 312 310 308 306 302 299 297 294 293 291 288 288 285
295 298 300 300 300 302 303 302 302 303 306 308 308 306 304 304 305 307 308 308 308 309 310 310 310 309 310 309 309 309 308 308 306 304 301 299 298 297 294 290 288 288 286
293 293 295 297 298 297 298 298 299 300 302 304 306 305 302 302 303 305 306 306 306 305 306 307 307 307 307 306 306 306 306 305 302 301 300 299 296 295 294 290 287 288 285
293 292 291 293 295 296 295 295 296 296 298 299 301 301 300 300 301 302 303 304 305 306 306 305 304 305 305 305 304 304 303 303 302 301 300 298 295 294 293 293 288 286 285
290 291 290 292 294 295 295 293 293 293 295 296 297 297 297 298 299 301 301 302 304 304 304 303 302 302 302 302 302 301 301 301 302 301 300 299 297 295 293 292 289 285 284
287 288 289 290 290 291 292 291 291 291 293 294 295 294 294 295 296 298 299 301 301 302 302 302 301 302 301 299 299 298 298 298 299 298 298 298 296 294 294 293 290 287 284
286 286 286 287 287 288 288 289 288 289 290 291 291 292 293 295 295 296 297 299 299 301 302 301 300 300 301 300 298 296 296 296 297 296 296 295 294 294 293 292 290 288 284
285 285 285 285 285 287 287 287 286 286 287 288 289 289 291 292 293 294 295 297 298 299 299 299 299 299 299 299 298 296 295 294 294 295 295 294 293 292 291 290 288 287 286
Height
5896 5896 5895 5895 5895 5894 5894 5893 5892 5892 5891 5890 5890 5889 5887 5886 5886 5886 5885 5885 5885 5885 5884 5883 5882 5880 5879 5878 5877 5876 5875 5874 5874 5873 5872 5872 5871 5871 5871 5871 5871 5872 5872
5896 5896 5896 5896 5895 5895 5894 5894 5893 5892 5891 5891 5890 5889 5888 5887 5886 5886 5886 5885 5885 5884 5883 5882 5880 5878 5877 5876 5875 5875 5874 5872 5871 5870 5870 5869 5869 5869 5869 5869 5869 5869 5869
5897 5896 5897 5896 5896 5895 5894 5894 5893 5893 5892 5891 5890 5889 5888 5888 5887 5886 5886 5885 5884 5883 5882 5881 5879 5877 5876 5875 5874 5873 5872 5870 5869 5868 5867 5867 5867 5866 5866 5866 5866 5866 5866
5898 5897 5897 5897 5896 5896 5895 5894 5894 5893 5893 5892 5891 5890 5889 5888 5887 5887 5886 5885 5884 5883 5881 5880 5878 5876 5875 5873 5872 5871 5870 5869 5868 5866 5865 5865 5864 5864 5863 5863 5863 5863 5863
5899 5898 5898 5898 5897 5897 5896 5895 5894 5894 5893 5892 5892 5891 5890 5889 5888 5887 5886 5885 5883 5882 5880 5879 5877 5876 5874 5872 5871 5870 5868 5867 5866 5865 5864 5863 5862 5861 5861 5861 5860 5860 5860
5899 5899 5899 5898 5898 5897 5896 5896 5895 5894 5894 5893 5892 5891 5890 5889 5888 5887 5886 5885 5883 5882 5880 5878 5876 5875 5874 5872 5870 5869 5867 5865 5864 5863 5861 5861 5860 5859 5858 5858 5857 5857 5857
5900 5900 5899 5899 5898 5897 5897 5896 5896 5895 5894 5893 5892 5891 5890 5889 5888 5887 5885 5884 5883 5881 5879 5877 5876 5874 5873 5871 5869 5868 5866 5864 5862 5861 5860 5859 5857 5856 5856 5855 5855 5854 5854
5901 5900 5900 5899 5898 5898 5897 5897 5896 5895 5894 5893 5893 5892 5890 5890 5888 5886 5885 5884 5882 5880 5878 5876 5875 5873 5871 5870 5868 5866 5864 5862 5861 5859 5858 5857 5855 5854 5853 5852 5852 5851 5851
5901 5901 5900 5900 5899 5899 5898 5897 5897 5896 5895 5893 5892 5892 5890 5889 5888 5886 5884 5883 5881 5879 5878 5876 5874 5872 5870 5868 5866 5864 5863 5861 5859 5857 5856 5855 5853 5851 5850 5850 5849 5848 5848
5902 5901 5901 5900 5899 5899 5898 5898 5897 5896 5895 5893 5892 5891 5890 5889 5887 5886 5884 5882 5880 5878 5877 5874 5872 5870 5868 5866 5864 5863 5861 5859 5857 5855 5854 5852 5850 5849 5848 5847 5846 5845 5844
5902 5901 5901 5900 5900 5899 5899 5898 5897 5895 5894 5893 5892 5890 5889 5888 5886 5885 5883 5881 5879 5877 5875 5873 5871 5869 5867 5865 5863 5861 5859 5857 5855 5853 5851 5849 5847 5846 5844 5843 5842 5841 5841
5903 5902 5901 5901 5900 5899 5898 5898 5896 5895 5894 5892 5891 5890 5888 5886 5885 5883 5881 5879 5877 5875 5873 5871 5869 5867 5865 5863 5861 5859 5857 5854 5852 5850 5848 5846 5845 5843 5842 5841 5839 5838 5837
5903 5902 5901 5900 5899 5899 5898 5897 5896 5894 5893 5891 5890 5889 5887 5885 5883 5882 5880 5878 5876 5874 5871 5869 5867 5865 5863 5860 5858 5856 5854 5852 5850 5847 5845 5844 5842 5840 5839 5837 5836 5834 5833
5903 5902 5901 5900 5899 5898 5897 5896 5895 5893 5892 5890 5889 5887 5886 5884 5882 5880 5878 5876 5874 5872 5869 5867 5865 5863 5860 5858 5856 5853 5851 5849 5847 5845 5842 5840 5839 5837 5835 5834 5832 5831 5829
5902 5901 5900 5899 5898 5897 5896 5895 5893 5892 5890 5889 5887 5886 5884 5882 5880 5878 5876 5874 5872 5870 5868 5865 5863 5860 5858 5855 5853 5850 5848 5846 5844 5841 5839 5837 5835 5833 5831 5829 5828 5827 5825
5901 5900 5899 5898 5897 5896 5894 5893 5892 5890 5889 5887 5885 5884 5882 5880 5878 5876 5874 5872 5870 5868 5865 5863 5860 5858 5855 5852 5850 5847 5845 5842 5840 5838 5835 5833 5831 5829 5827 5825 5824 5822 5821
5899 5898 5897 5896 5895 5894 5892 5891 5890 5888 5886 5885 5883 5881 5880 5878 5876 5874 5872 5869 5867 5865 5862 5860 5857 5855 5852 5849 5846 5843 5841 5838 5836 5833 5831 5829 5827 5825 5823 5821 5819 5817 5815
5897 5896 5895 5894 5893 5892 5890 5889 5887 5885 5884 5882 5880 5878 5877 5875 5873 5871 5868 5866 5864 5861 5859 5856 5854 5851 5848 5845 5842 5839 5836 5834 5831 5829 5826 5824 5822 5819 5817 5815 5813 5811 5810
5895 5894 5893 5891 5890 5889 5887 5886 5884 5882 5881 5879 5877 5875 5873 5871 5869 5867 5865 5862 5860 5857 5855 5852 5850 5846 5844 5841 5838 5835 5832 5829 5826 5823 5821 5818 5816 5814 5812 5810 5807 5806 5804
5892 5891 5890 5888 5887 5886 5884 5883 5881 5879 5877 5875 5873 5871 5869 5867 5865 5863 5861 5858 5855 5853 5850 5847 5845 5842 5839 5836 5833 5830 5827 5824 5821 5818 5815 5813 5810 5808 5806 5803 5802 5799 5798
5889 5888 5886 5885 5884 5882 5880 5879 5877 5875 5873 5871 5869 5867 5865 5863 5861 5858 5856 5853 5850 5847 5845 5842 5839 5836 5833 5830 5827 5824 5821 5818 5815 5812 5809 5807 5804 5801 5799 5797 5795 5793 5791
5886 5884 5883 5881 5880 5878 5876 5875 5873 5871 5869 5867 5865 5862 5860 5858 5855 5853 5850 5848 5845 5842 5839 5836 5833 5830 5827 5823 5820 5817 5814 5811 5809 5806 5803 5800 5797 5795 5792 5790 5788 5785 5783
5882 5880 5879 5877 5876 5874 5872 5870 5868 5866 5864 5862 5860 5857 5855 5853 5850 5847 5844 5841 5838 5835 5832 5829 5826 5823 5820 5817 5814 5811 5808 5805 5802 5799 5796 5793 5790 5787 5785 5782 5780 5778 5776
5877 5875 5874 5872 5870 5869 5866 5864 5862 5860 5858 5856 5854 5851 5849 5846 5843 5840 5838 5835 5831 5828 5825 5821 5819 5816 5813 5809 5806 5803 5800 5797 5794 5791 5788 5786 5783 5780 5777 5775 5772 5770 5768
5871 5870 5868 5866 5864 5862 5860 5858 5856 5853 5852 5850 5847 5845 5842 5840 5837 5833 5830 5827 5824 5821 5817 5814 5811 5808 5805 5801 5798 5795 5792 5789 5786 5783 5780 5778 5775 5772 5769 5767 5764 5762 5760
5865 5863 5861 5859 5857 5855 5853 5851 5848 5846 5844 5842 5840 5837 5835 5832 5829 5825 5822 5819 5816 5813 5810 5806 5803 5800 5796 5793 5790 5787 5784 5781 5778 5775 5772 5769 5766 5763 5761 5759 5756 5754 5752